| time (UTC) | temp F | wind direction | speed MPH | gust MPH | rain 1hr in | rain 24hr in | rain mn in | humidity % | barometer mb |
| 20260903011715 | 60 | 0.0 | 0.0 | 0.00 | 0.00 | 0.00 | 79 | 1012.9 | |
| 20260903010216 | 60 | 0.0 | 0.0 | 0.00 | 0.00 | 0.00 | 80 | 1013.0 | |
| 20260903004715 | 60 | 0.0 | 0.0 | 0.00 | 0.00 | 0.00 | 80 | 1013.2 | |
| 20260903003216 | 60 | 0.0 | 0.0 | 0.00 | 0.00 | 0.00 | 80 | 1013.0 | |
| 20260903001715 | 60 | 0.0 | 0.0 | 0.00 | 0.00 | 0.00 | 80 | 1013.3 | |
| 20260903000215 | 60 | 0.0 | 0.0 | 0.00 | 0.00 | 0.00 | 80 | 1013.2 | |
| 20260902234715 | 60 | 0.0 | 0.0 | 0.00 | 0.00 | 0.00 | 80 | 1013.3 | |
| 20260902233215 | 60 | 0.0 | 0.0 | 0.00 | 0.00 | 0.00 | 81 | 1012.8 | |
| 20260902231715 | 60 | 0.0 | 0.0 | 0.00 | 0.00 | 0.00 | 81 | 1013.2 | |
| 20260902230216 | 60 | 0.0 | 0.0 | 0.00 | 0.00 | 0.00 | 80 | 1013.1 | |
| 20260902224715 | 60 | 0.0 | 0.0 | 0.00 | 0.00 | 0.00 | 79 | 1013.3 | |
| 20260902223215 | 60 | 0.0 | 0.0 | 0.00 | 0.00 | 0.00 | 79 | 1013.4 | |
| 20260902221715 | 61 | 0.0 | 0.0 | 0.00 | 0.00 | 0.00 | 78 | 1013.4 | |
| 20260902220215 | 61 | 0.0 | 0.0 | 0.00 | 0.00 | 0.00 | 78 | 1013.6 | |
| 20260902214715 | 61 | 0.0 | 0.0 | 0.00 | 0.00 | 0.00 | 78 | 1013.0 | |
| 20260902213215 | 62 | 0.0 | 0.0 | 0.00 | 0.00 | 0.00 | 78 | 1013.3 | |
| 20260902211715 | 62 | 0.0 | 0.0 | 0.00 | 0.00 | 0.00 | 78 | 1013.3 | |
| 20260902210215 | 62 | 0.0 | 0.0 | 0.00 | 0.00 | 0.00 | 78 | 1013.2 | |
| 20260902204715 | 62 | 0.0 | 0.0 | 0.00 | 0.00 | 0.00 | 79 | 1012.9 | |
| 20260902203215 | 61 | 0.0 | 0.0 | 0.00 | 0.00 | 0.00 | 80 | 1013.3 | |
| 20260902201721 | 61 | 0.0 | 0.0 | 0.00 | 0.00 | 0.00 | 82 | 1013.2 | |
| 20260902200215 | 61 | 0.0 | 0.0 | 0.00 | 0.00 | 0.00 | 82 | 1013.0 | |
| 20260902194715 | 60 | 0.0 | 0.0 | 0.00 | 0.00 | 0.00 | 82 | 1013.0 | |
| 20260902193215 | 61 | 0.0 | 0.0 | 0.00 | 0.00 | 0.00 | 81 | 1013.1 | |
| 20260902191715 | 62 | 0.0 | 0.0 | 0.00 | 0.00 | 0.00 | 79 | 1013.3 | |
| 20260902190215 | 62 | 0.0 | 0.0 | 0.00 | 0.00 | 0.00 | 78 | 1013.3 | |
| 20260902184715 | 63 | 0.0 | 0.0 | 0.00 | 0.00 | 0.00 | 77 | 1013.2 | |
| 20260902183216 | 63 | 0.0 | 0.0 | 0.00 | 0.00 | 0.00 | 76 | 1012.8 | |
| 20260902181715 | 64 | 0.0 | 0.0 | 0.00 | 0.00 | 0.00 | 73 | 1012.9 | |
| 20260902180215 | 65 | 0.0 | 0.0 | 0.00 | 0.00 | 0.00 | 71 | 1012.8 | |
| 20260902174715 | 67 | 0.0 | 0.0 | 0.00 | 0.00 | 0.00 | 68 | 1012.6 | |
| 20260902173215 | 68 | 0.0 | 0.0 | 0.00 | 0.00 | 0.00 | 65 | 1012.7 | |
| 20260902171716 | 70 | 0.0 | 0.0 | 0.00 | 0.00 | 0.00 | 61 | 1013.4 | |
| 20260902170215 | 71 | 0.0 | 0.0 | 0.00 | 0.00 | 0.00 | 58 | 1013.3 | |
| 20260902164715 | 71 | 0.0 | 0.0 | 0.00 | 0.00 | 0.00 | 55 | 1012.9 | |
| 20260902163248 | 71 | 0.0 | 0.0 | 0.00 | 0.00 | 0.00 | 55 | ||
| 20260902162339 | 71 | 0.0 | 0.0 | 0.00 | 0.00 | 0.00 | 55 | 1013.1 | |
| 20260902160905 | 71 | 0.0 | 0.0 | 0.00 | 0.00 | 0.00 | 55 | 1013.3 | |
| 20260902155814 | 71 | 0.0 | 0.0 | 0.00 | 0.00 | 0.00 | 55 | 1012.5 | |
| 20260902155224 | 71 | 0.0 | 0.0 | 0.00 | 0.00 | 0.00 | 55 | 1012.5 | |
| 20260902153724 | 72 | 0.0 | 0.0 | 0.00 | 0.00 | 0.00 | 54 | 1012.2 | |
| 20260902152224 | 73 | 0.0 | 0.0 | 0.00 | 0.00 | 0.00 | 52 | 1012.4 | |
| 20260902150724 | 73 | 0.0 | 0.0 | 0.00 | 0.00 | 0.00 | 51 | 1013.5 | |
| 20260902145224 | 72 | 0.0 | 0.0 | 0.00 | 0.00 | 0.00 | 52 | 1013.0 | |
| 20260902143724 | 74 | 0.0 | 0.0 | 0.00 | 0.00 | 0.00 | 51 | 1013.5 | |
| 20260902142224 | 72 | 0.0 | 0.0 | 0.00 | 0.00 | 0.00 | 54 | 1013.8 | |
| 20260902140725 | 72 | 0.0 | 0.0 | 0.00 | 0.00 | 0.00 | 53 | 1013.0 | |
| 20260902135224 | 72 | 0.0 | 0.0 | 0.00 | 0.00 | 0.00 | 52 | 1014.2 | |
| 20260902133724 | 73 | 0.0 | 0.0 | 0.00 | 0.00 | 0.00 | 52 | 1013.6 | |
| 20260902132224 | 73 | 0.0 | 0.0 | 0.00 | 0.00 | 0.00 | 51 | 1014.6 | |
| 20260902130724 | 73 | 0.0 | 0.0 | 0.00 | 0.00 | 0.00 | 50 | 1014.2 | |
| 20260902125224 | 73 | 0.0 | 0.0 | 0.00 | 0.00 | 0.00 | 50 | 1014.9 | |
| 20260902123724 | 72 | 0.0 | 0.0 | 0.00 | 0.00 | 0.00 | 52 | 1013.4 | |
| 20260902122224 | 73 | 0.0 | 0.0 | 0.00 | 0.00 | 0.00 | 51 | 1014.0 | |
| 20260902120724 | 73 | 0.0 | 0.0 | 0.00 | 0.00 | 0.00 | 51 | 1012.9 | |
| 20260902115224 | 74 | 0.0 | 0.0 | 0.00 | 0.00 | 0.00 | 51 | 1015.1 | |
| 20260902113724 | 73 | 0.0 | 0.0 | 0.00 | 0.00 | 0.00 | 52 | 1014.9 | |
| 20260902112224 | 71 | 0.0 | 0.0 | 0.00 | 0.00 | 0.00 | 52 | 1014.3 | |
| 20260902110725 | 70 | 0.0 | 0.0 | 0.00 | 0.00 | 0.00 | 54 | 1015.0 | |
| 20260902105224 | 70 | 0.0 | 0.0 | 0.00 | 0.00 | 0.00 | 56 | 1014.3 | |
| 20260902103724 | 71 | 0.0 | 0.0 | 0.00 | 0.00 | 0.00 | 56 | 1014.2 | |
| 20260902102224 | 70 | 0.0 | 0.0 | 0.00 | 0.00 | 0.00 | 59 | 1015.5 | |
| 20260902100724 | 68 | 0.0 | 0.0 | 0.00 | 0.00 | 0.00 | 60 | 1015.2 | |
| 20260902095224 | 70 | 0.0 | 0.0 | 0.00 | 0.00 | 0.00 | 59 | 1015.0 | |
| 20260902093724 | 70 | 0.0 | 0.0 | 0.00 | 0.00 | 0.00 | 60 | 1015.3 | |
| 20260902092225 | 69 | 0.0 | 0.0 | 0.00 | 0.00 | 0.00 | 62 | 1015.7 | |
| 20260902090724 | 68 | 0.0 | 0.0 | 0.00 | 0.00 | 0.00 | 62 | 1015.5 | |
| 20260902085224 | 68 | 0.0 | 0.0 | 0.00 | 0.00 | 0.00 | 63 | 1015.0 | |
| 20260902083724 | 67 | 0.0 | 0.0 | 0.00 | 0.00 | 0.00 | 65 | 1015.9 | |
| 20260902082224 | 68 | 0.0 | 0.0 | 0.00 | 0.00 | 0.00 | 65 | 1015.2 | |
| 20260902080724 | 67 | 0.0 | 0.0 | 0.00 | 0.00 | 0.00 | 68 | 1015.2 | |
| 20260902075224 | 67 | 0.0 | 0.0 | 0.00 | 0.00 | 0.00 | 69 | 1014.2 | |
| 20260902073724 | 66 | 0.0 | 0.0 | 0.00 | 0.00 | 0.00 | 72 | 1015.3 | |
| 20260902072224 | 65 | 0.0 | 0.0 | 0.00 | 0.00 | 0.00 | 75 | 1015.4 | |
| 20260902070724 | 63 | 0.0 | 0.0 | 0.00 | 0.00 | 0.00 | 78 | 1014.9 | |
| 20260902065224 | 63 | 0.0 | 0.0 | 0.00 | 0.00 | 0.00 | 79 | 1015.1 | |
| 20260902063724 | 62 | 0.0 | 0.0 | 0.00 | 0.00 | 0.00 | 81 | 1014.3 | |
| 20260902062224 | 61 | 0.0 | 0.0 | 0.00 | 0.00 | 0.00 | 82 | 1014.6 | |
| 20260902060724 | 61 | 0.0 | 0.0 | 0.00 | 0.00 | 0.00 | 83 | 1014.5 | |
| 20260902055225 | 61 | 0.0 | 0.0 | 0.00 | 0.00 | 0.00 | 84 | 1015.0 | |
| 20260902053725 | 60 | 0.0 | 0.0 | 0.00 | 0.00 | 0.00 | 85 | 1015.2 | |
| 20260902052224 | 59 | 0.0 | 0.0 | 0.00 | 0.00 | 0.00 | 87 | 1014.7 | |
| 20260902050724 | 58 | 0.0 | 0.0 | 0.00 | 0.00 | 0.00 | 88 | 1015.2 | |
| 20260902045224 | 57 | 0.0 | 0.0 | 0.00 | 0.00 | 0.00 | 89 | 1015.1 | |
| 20260902043724 | 57 | 0.0 | 0.0 | 0.00 | 0.00 | 0.00 | 89 | 1014.6 | |
| 20260902042224 | 57 | 0.0 | 0.0 | 0.00 | 0.00 | 0.00 | 89 | 1014.8 | |
| 20260902040724 | 56 | 0.0 | 0.0 | 0.00 | 0.00 | 0.00 | 89 | 1014.6 | |
| 20260902035224 | 57 | 0.0 | 0.0 | 0.00 | 0.00 | 0.00 | 89 | 1014.0 | |
| 20260902033724 | 57 | 0.0 | 0.0 | 0.00 | 0.00 | 0.00 | 88 | 1013.7 | |
| 20260902032225 | 58 | 0.0 | 0.0 | 0.00 | 0.00 | 0.00 | 88 | 1014.2 | |
| 20260902030724 | 58 | 0.0 | 0.0 | 0.00 | 0.00 | 0.00 | 87 | 1014.2 | |
| 20260902025224 | 58 | 0.0 | 0.0 | 0.00 | 0.00 | 0.00 | 87 | 1014.1 | |
| 20260902023724 | 58 | 0.0 | 0.0 | 0.00 | 0.00 | 0.00 | 86 | 1014.1 | |
| 20260902022224 | 59 | 0.0 | 0.0 | 0.00 | 0.00 | 0.00 | 86 | 1014.2 | |
| 20260902020724 | 59 | 0.0 | 0.0 | 0.00 | 0.00 | 0.00 | 86 | 1014.3 | |
| 20260902015224 | 59 | 0.0 | 0.0 | 0.00 | 0.00 | 0.00 | 86 | 1014.3 | |
| 20260902013724 | 60 | 0.0 | 0.0 | 0.00 | 0.00 | 0.00 | 86 | 1013.9 | |
| 20260902012225 | 60 | 0.0 | 0.0 | 0.00 | 0.00 | 0.00 | 86 | 1014.0 |